Weather in Saratovskaya

Russia / Krasnodar Krai     44°42′25″N   39°13′48″E
temp.,
°C
wind,
m/s
gust,
m/s
humid.,
%
clouds,
%
prec.,
mm/h
press.,
hPa
HPBL,
m
15 may, sat
sat1500:00+15wsw22820 0.0 101221
03:00+14w22800 0.0 101327
06:00+14wsw11820 0.0 101428
09:00+20wnw11585 0.0 1015383
12:00+24nnw21495 0.0 1014687
15:00+25nne225126 0.1 1013723
18:00+24ne24715 0.0 1012273
21:00+18nne22910 0.5 101215
16 may, sun
sun1600:00+17sw219610 0.9 101117
03:00+16w119789 2.2 101111
06:00+16wnw119754 0.8 101045
09:00+20n1288100 0.8 1009392
12:00+26ene3571100 0.0 1007928
15:00+28ene566418 0.0 10051266
18:00+27ne37760 0.0 1004564
21:00+21ene310955 0.0 1003210
17 may, mon
mon1700:00+19se119582 0.0 100312
03:00+18sw2296100 0.0 100335
06:00+18sw239326 0.0 100463
09:00+22ssw6126099 0.0 1006615
12:00+23sw61355100 0.0 10071027
15:00+23wsw61055100 0.0 1008892
18:00+21wnw357069 0.0 1009274
21:00+15ssw369574 0.8 1011110
18 may, tue
tue1800:00+13ssw389448 0.8 1011150
03:00+12ne229778 0.8 101226
06:00+14ssw2897100 0.0 1013273
09:00+17sw3984100 0.0 1014509
12:00+23wsw355116 0.0 10141295
15:00+24wsw55500 0.0 10141529
18:00+20sw58660 0.0 1014487
21:00+14sw23870 0.0 101644
19 may, wed
wed1900:00+12ssw23940 0.0 101639
03:00+12s22935 0.0 101631
06:00+13sse23885 0.0 101673
09:00+21e23605 0.0 1015479
12:00+26ene345162 0.0 10131340
15:00+27ene44540 0.0 10111524
18:00+24ene49700 0.0 1010577
21:00+18e38895 0.0 1010150